Content
SEND FEEDBACK

Daily
Averages
Monthly
Summary
United States of America

LITTLE VALLEY, NEW YORK


Home > North America > United States > New York
Elevation: 2027 feet     Latitude: 42 15N     Longitude: 078 49W

WEATHER
 
SELECT A DAY
Number of Records: 343,841;   Date Range: 1/1/95 - 7/26/14
 
SHARE

PRINT THIS DATA

[ ← Previous Day ]
WEATHER ALMANAC - FEBRUARY 13, 2013
[ Next Day → ]
[ °C ]   °F
Weather ElementAverageHighLow
Temperature26.8 °F35.6 °F (1:15 pm)21.2 °F (9:35 pm)
Dewpoint20.3 °F23 °F (4:15 pm)17.6 °F (3:35 pm)
Humidity77.5 %100 % (11:15 pm)52 % (3:15 pm)
Barometer29.76 in29.87 in (12:35 am)29.67 in (3:55 pm)
Wind Speed2.9 mph13.8 mph (5:15 pm)
Weather ElementAverage
Visibility9.5 mi
Wind DirectionSE (132.4 °)

Weather ElementTotal
Precipitation---
Heating Degree Days36.6 (Base 65)
Averaged from 71 records on February 13, 2013
WEATHER CONDITIONS BREAKOUT
WIND DIRECTION BREAKOUT
WEATHER BY HOUR - FEBRUARY 13, 2013
[ °C ]   °F
Local TimeTemperatureDewpointHumidityBarometerVisibilityWind DirectionWind SpeedGust SpeedPrecipitationEventsConditions
12:35 AM24.8 °F21.2 °F86 %29.87 in10.0 miSSW (210°)3.5 mphOvercast
12:55 AM24.8 °F21.2 °F86 %29.86 in10.0 miSSW (200°)4.6 mphOvercast
1:15 AM24.8 °F21.2 °F86 %29.87 in10.0 miSouth (190°)4.6 mphOvercast
1:35 AM24.8 °F21.2 °F86 %29.86 in10.0 miSouth (190°)4.6 mphOvercast
1:55 AM26.6 °F21.2 °F80 %29.86 in10.0 miSouth (190°)3.5 mphOvercast
2:15 AM24.8 °F21.2 °F86 %29.85 in10.0 miSouth (190°)4.6 mphOvercast
2:35 AM24.8 °F21.2 °F86 %29.85 in10.0 miSouth (180°)3.5 mphOvercast
2:55 AM26.6 °F21.2 °F80 %29.84 in10.0 miSouth (180°)4.6 mphOvercast
3:15 AM26.6 °F21.2 °F80 %29.83 in10.0 miSouth (190°)3.5 mphOvercast
3:35 AM26.6 °F21.2 °F80 %29.83 in10.0 miCalmOvercast
3:55 AM26.6 °F21.2 °F80 %29.83 in10.0 miSSW (200°)3.5 mphOvercast
4:15 AM24.8 °F21.2 °F86 %29.82 in10.0 miCalmOvercast
4:35 AM26.6 °F21.2 °F80 %29.82 in10.0 miSouth (190°)3.5 mphOvercast
4:55 AM26.6 °F21.2 °F80 %29.82 in10.0 miCalmOvercast
5:15 AM24.8 °F21.2 °F86 %29.82 in10.0 miSouth (190°)4.6 mphOvercast
5:35 AM24.8 °F21.2 °F86 %29.82 in10.0 miCalmOvercast
5:55 AM24.8 °F21.2 °F86 %29.82 in10.0 miCalmOvercast
6:15 AM24.8 °F21.2 °F86 %29.81 in10.0 miCalmOvercast
6:35 AM24.8 °F21.2 °F86 %29.81 in10.0 miCalmOvercast
6:55 AM24.8 °F21.2 °F86 %29.81 in10.0 miCalmOvercast
7:15 AM26.6 °F21.2 °F80 %29.80 in10.0 miCalmOvercast
7:35 AM26.6 °F21.2 °F80 %29.80 in10.0 miCalmOvercast
7:55 AM26.6 °F21.2 °F80 %29.80 in10.0 miCalmOvercast
8:15 AM26.6 °F21.2 °F80 %29.80 in10.0 miWNW (290°)3.5 mphOvercast
8:35 AM26.6 °F21.2 °F80 %29.79 in10.0 miCalmOvercast
8:55 AM26.6 °F19.4 °F74 %29.79 in10.0 miWest (280°)3.5 mphOvercast
9:15 AM26.6 °F19.4 °F74 %29.79 in10.0 miCalmOvercast
9:35 AM26.6 °F19.4 °F74 %29.78 in10.0 miWNW (290°)4.6 mphOvercast
9:55 AM26.6 °F19.4 °F74 %29.78 in10.0 miWest (270°)4.6 mphOvercast
10:15 AM28.4 °F19.4 °F69 %29.77 in10.0 miCalmOvercast
10:35 AM26.6 °F19.4 °F74 %29.76 in10.0 miCalmOvercast
10:55 AM28.4 °F19.4 °F69 %29.74 in10.0 miCalmMostly Cloudy
11:15 AM30.2 °F19.4 °F64 %29.74 in10.0 miCalmPartly Cloudy
11:35 AM28.4 °F19.4 °F69 %29.75 in10.0 miCalmClear
11:55 AM30.2 °F19.4 °F64 %29.75 in10.0 miWest (280°)3.5 mphClear
12:15 PM26.6 °F19.4 °F74 %29.74 in10.0 miWest (260°)5.8 mphClear
12:35 PM28.4 °F19.4 °F69 %29.73 in10.0 miCalmClear
12:55 PM30.2 °F19.4 °F64 %29.71 in10.0 miCalmClear
1:15 PM35.6 °F21.2 °F56 %29.70 in10.0 miCalmClear
1:35 PM32.0 °F19.4 °F60 %29.70 in10.0 miCalmClear
1:55 PM33.8 °F19.4 °F56 %29.69 in10.0 miCalmClear
2:15 PM33.8 °F21.2 °F60 %29.68 in10.0 miCalmClear
2:35 PM33.8 °F19.4 °F56 %29.68 in10.0 miCalmClear
2:55 PM33.8 °F19.4 °F56 %29.68 in10.0 miCalmClear
3:15 PM35.6 °F19.4 °F52 %29.68 in10.0 miCalmClear
3:35 PM33.8 °F17.6 °F52 %29.68 in10.0 miCalmClear
3:55 PM33.8 °F19.4 °F56 %29.67 in10.0 miCalmClear
4:15 PM33.8 °F23.0 °F65 %29.67 in10.0 miNNW (340°)10.4 mphClear
4:35 PM30.2 °F21.2 °F69 %29.67 in10.0 miNNW (340°)11.5 mphClear
4:55 PM26.6 °F21.2 °F80 %29.67 in10.0 miNNW (340°)10.4 mphClear
5:15 PM26.6 °F21.2 °F80 %29.68 in10.0 miNorth (350°)13.8 mphClear
5:35 PM23.0 °F21.2 °F93 %29.68 in10.0 miNorth (350°)13.8 mphClear
5:55 PM26.6 °F21.2 °F80 %29.68 in10.0 miNorth (350°)12.7 mphClear
6:15 PM26.6 °F21.2 °F80 %29.69 in10.0 miNorth (360°)10.4 mphClear
6:35 PM26.6 °F21.2 °F80 %29.69 in10.0 miNorth (350°)9.2 mphClear
6:55 PM24.8 °F21.2 °F86 %29.69 in10.0 miNorth (360°)8.1 mphClear
7:15 PM24.8 °F19.4 °F80 %29.70 in10.0 miNorth (350°)3.5 mphClear
7:35 PM24.8 °F19.4 °F80 %29.71 in10.0 miNorth (350°)5.8 mphClear
7:55 PM24.8 °F19.4 °F80 %29.72 in10.0 miNNW (340°)3.5 mphClear
8:15 PM24.8 °F19.4 °F80 %29.72 in10.0 miNNW (340°)3.5 mphClear
8:35 PM23.0 °F19.4 °F86 %29.73 in10.0 miNW (320°)3.5 mphClear
8:55 PM23.0 °F17.6 °F80 %29.73 in9.0 miCalmPartly Cloudy
9:15 PM23.0 °F19.4 °F86 %29.74 in10.0 miCalmMostly Cloudy
9:35 PM21.2 °F19.4 °F93 %29.75 in7.0 miCalmMostly Cloudy
9:55 PM21.2 °F19.4 °F93 %29.75 in7.0 miCalmMostly Cloudy
10:15 PM23.0 °F19.4 °F86 %29.75 in7.0 miCalmOvercast
10:35 PM21.2 °F19.4 °F93 %29.75 in7.0 miCalmOvercast
10:55 PM23.0 °F19.4 °F86 %29.76 in5.0 miWNW (290°)3.5 mphOvercast
11:15 PM21.2 °F21.2 °F100 %29.76 in4.0 miCalmOvercast
11:35 PM23.0 °F19.4 °F86 %29.76 in5.0 miCalmOvercast
11:55 PM23.0 °F19.4 °F86 %29.77 in6.0 miWNW (300°)6.9 mphOvercast
Hourly data recorded from KJHW, located miles away from Little Valley, New York







STORIES FROM OUR PARTNERS